Find Kosmos-2275

NORAD ID: 23043 Int'l Des: 1994-021 Owner: VKS Country: RU Constellation: GLONASS operational
MEOCIRCULAR

Live Position

Loading 3D Globe...

About Kosmos-2275

Description loading...

Upcoming Passes

Passes for default location (London). Set your location on the main map for personalized predictions.

Altitude History

Loading altitude history...

Two-Line Element Set

1 23043U 94021A 26101.93857666 .00000013 00000-0 00000+0 0 9991
2 23043 64.0377 303.1506 0019562 186.9395 350.2089 2.13099486248826
Epoch: Apr 11, 2026 • Age: 113 hours

Current Status

Altitude 19081.6 km
Velocity 3.96 km/s
Sub-Earth Point -5.03°S, 49.47°E
Launch Date Apr 11, 1994
Age 32 years
Type other

Technical Details

Classification Payload
Mass 1300.00 kg
Dry Mass 1200.00 kg
Total Mass 1300.00 kg
Length 4.00 m
Diameter 1.50 m
Span 7.80 m
Shape Cyl + Ant + 2 Pan
Manufacturer POL
Bus Type Uragan
Phase Status In Orbit
Owner/State VKS/RU

Most Searched